|
Cosmos 1697 Rocket - Orbit
|
Gila Cliff Dwellings National Monument;
02:43:22
| Home | Info | Passes |
|
View from above orbital plane
|
View from above satellite
|
Ground track
|
The orbit data is extracted from the following two-line orbital elements,
1 16182U 85097B 13140.86215346 -.00000223 00000-0 -88745-4 0 9985
2 16182 071.0045 259.0635 0007828 198.4928 307.7907 14.16064137425516
| Epoch (UTC): | 20 May 2013 20:41:30 |
| Eccentricity: | 0.0007828 |
| inclination: | 71.0045° |
| perigee height: | 833 km |
| apogee height: | 844 km |
| right ascension of ascending node: | 259.0635° |
| argument of perigee: | 198.4928° |
| revolutions per day: | 14.16064137 |
| mean anomaly at epoch: | 307.7907° |
| orbit number at epoch: | 42551 |
The dashed part of the orbit path shows where the satellite is in the earth's shadow,
|
|